Time,TemperatureF,DewpointF,PressureIn,WindDirection,WindDirectionDegrees,WindSpeedMPH,WindSpeedGustMPH,Humidity,HourlyPrecipIn,Conditions,Clouds,dailyrainin,SoftwareType,DateUTC
2013-02-09 00:00:00,69.1,56.4,29.94,WNW,292,0.0,0.0,64,0.00,,---,0.00,VWS V13.01,2013-02-09 05:00:00,
2013-02-09 00:05:00,69.1,56.4,29.94,WNW,292,0.0,0.0,64,0.00,,---,0.00,VWS V13.01,2013-02-09 05:05:00,
2013-02-09 00:10:00,69.1,56.0,29.94,WNW,292,0.0,0.0,63,0.00,,---,0.00,VWS V13.01,2013-02-09 05:10:00,
2013-02-09 00:15:00,68.5,55.5,29.94,WNW,292,0.0,0.0,63,0.00,,---,0.00,VWS V13.01,2013-02-09 05:15:00,
2013-02-09 00:20:00,68.4,54.8,29.94,WNW,292,0.0,0.0,62,0.00,,---,0.00,VWS V13.01,2013-02-09 05:20:00,
2013-02-09 00:25:00,68.2,54.2,29.94,WNW,292,0.0,0.0,61,0.00,,---,0.00,VWS V13.01,2013-02-09 05:25:00,
2013-02-09 00:30:00,68.2,54.2,29.94,WNW,292,0.0,0.0,61,0.00,,---,0.00,VWS V13.01,2013-02-09 05:30:00,
2013-02-09 00:35:00,68.0,54.1,29.94,WNW,292,0.0,0.0,61,0.00,,---,0.00,VWS V13.01,2013-02-09 05:35:00,
2013-02-09 00:40:00,67.6,53.7,29.94,WNW,292,0.0,0.0,61,0.00,,---,0.00,VWS V13.01,2013-02-09 05:40:00,
2013-02-09 00:45:00,67.6,53.7,29.94,WNW,292,0.0,0.0,61,0.00,,---,0.00,VWS V13.01,2013-02-09 05:45:00,
2013-02-09 00:50:00,67.5,53.6,29.94,WNW,292,0.0,0.0,61,0.00,,---,0.00,VWS V13.01,2013-02-09 05:50:00,
2013-02-09 00:55:00,67.1,53.2,29.94,WNW,292,0.0,0.0,61,0.00,,---,0.00,VWS V13.01,2013-02-09 05:55:00,
2013-02-09 01:00:00,66.9,53.5,29.94,WNW,292,0.0,0.0,62,0.00,,---,0.00,VWS V13.01,2013-02-09 06:00:00,
2013-02-09 01:05:00,66.9,53.5,29.94,WNW,292,0.0,0.0,62,0.00,,---,0.00,VWS V13.01,2013-02-09 06:05:00,
2013-02-09 01:10:00,66.7,53.3,29.94,WNW,292,0.0,0.0,62,0.00,,---,0.00,VWS V13.01,2013-02-09 06:10:00,
2013-02-09 01:15:00,66.4,53.0,29.94,WNW,292,0.0,0.0,62,0.00,,---,0.00,VWS V13.01,2013-02-09 06:15:00,
2013-02-09 01:20:00,66.2,52.8,29.94,WNW,292,0.0,0.0,62,0.00,,---,0.00,VWS V13.01,2013-02-09 06:20:00,
2013-02-09 01:25:00,66.2,53.2,29.94,WNW,292,0.0,0.0,63,0.00,,---,0.00,VWS V13.01,2013-02-09 06:25:00,
2013-02-09 01:30:00,66.0,53.1,29.94,WNW,292,0.0,0.0,63,0.00,,---,0.00,VWS V13.01,2013-02-09 06:30:00,
2013-02-09 01:35:00,65.7,53.2,29.94,WNW,292,0.0,0.0,64,0.00,,---,0.00,VWS V13.01,2013-02-09 06:35:00,
2013-02-09 01:40:00,65.7,53.2,29.94,WNW,292,0.0,0.0,64,0.00,,---,0.00,VWS V13.01,2013-02-09 06:40:00,
2013-02-09 01:45:00,65.7,53.2,29.94,WNW,292,0.0,0.0,64,0.00,,---,0.00,VWS V13.01,2013-02-09 06:45:00,
2013-02-09 01:50:00,65.3,53.2,29.94,WNW,292,0.0,0.0,65,0.00,,---,0.00,VWS V13.01,2013-02-09 06:50:00,
2013-02-09 01:55:00,65.3,53.7,29.94,WNW,292,0.0,0.0,66,0.00,,---,0.00,VWS V13.01,2013-02-09 06:55:00,
2013-02-09 02:00:00,65.1,53.9,29.93,WNW,292,0.0,0.0,67,0.00,,---,0.00,VWS V13.01,2013-02-09 07:00:00,
2013-02-09 02:05:00,65.1,53.9,29.93,WNW,292,0.0,0.0,67,0.00,,---,0.00,VWS V13.01,2013-02-09 07:05:00,
2013-02-09 02:10:00,65.1,54.3,29.93,WNW,292,0.0,0.0,68,0.00,,---,0.00,VWS V13.01,2013-02-09 07:10:00,
2013-02-09 02:15:00,64.9,54.1,29.93,WNW,292,0.0,0.0,68,0.00,,---,0.00,VWS V13.01,2013-02-09 07:15:00,
2013-02-09 02:20:00,64.9,54.1,29.93,WNW,292,0.0,0.0,68,0.00,,---,0.00,VWS V13.01,2013-02-09 07:20:00,
2013-02-09 02:25:00,64.8,54.4,29.93,WNW,292,0.0,0.0,69,0.00,,---,0.00,VWS V13.01,2013-02-09 07:25:00,
2013-02-09 02:30:00,64.6,54.2,29.93,WNW,292,0.0,0.0,69,0.00,,---,0.00,VWS V13.01,2013-02-09 07:30:00,
2013-02-09 02:35:00,64.4,54.0,29.93,WNW,292,0.0,0.0,69,0.00,,---,0.00,VWS V13.01,2013-02-09 07:35:00,
2013-02-09 02:40:00,64.0,54.1,29.93,WNW,292,0.0,0.0,70,0.00,,---,0.00,VWS V13.01,2013-02-09 07:40:00,
2013-02-09 02:45:00,64.0,54.1,29.94,WNW,292,0.0,0.0,70,0.00,,---,0.00,VWS V13.01,2013-02-09 07:45:00,
2013-02-09 02:50:00,63.9,54.3,29.94,WNW,292,0.0,0.0,71,0.00,,---,0.00,VWS V13.01,2013-02-09 07:50:00,
2013-02-09 02:55:00,63.7,54.1,29.94,WNW,292,0.0,0.0,71,0.00,,---,0.00,VWS V13.01,2013-02-09 07:55:00,
2013-02-09 03:00:00,63.5,54.3,29.94,WNW,292,0.0,0.0,72,0.00,,---,0.00,VWS V13.01,2013-02-09 08:00:00,
2013-02-09 03:05:00,63.5,54.7,29.94,WNW,292,0.0,0.0,73,0.00,,---,0.00,VWS V13.01,2013-02-09 08:05:00,
2013-02-09 03:10:00,63.9,55.4,29.94,WSW,248,0.0,0.0,74,0.00,,---,0.00,VWS V13.01,2013-02-09 08:10:00,
2013-02-09 03:15:00,64.0,56.0,29.94,NNW,338,0.0,0.0,75,0.00,,---,0.00,VWS V13.01,2013-02-09 08:15:00,
2013-02-09 03:20:00,64.2,56.9,29.93,NNW,338,0.0,0.0,77,0.00,,---,0.00,VWS V13.01,2013-02-09 08:20:00,
2013-02-09 03:25:00,64.4,57.4,29.94,NNW,338,0.0,0.0,78,0.00,,---,0.00,VWS V13.01,2013-02-09 08:25:00,
2013-02-09 03:30:00,64.6,57.9,29.94,NNW,338,0.0,0.0,79,0.00,,---,0.00,VWS V13.01,2013-02-09 08:30:00,
2013-02-09 03:35:00,64.6,58.3,29.94,NNW,338,0.0,0.0,80,0.00,,---,0.00,VWS V13.01,2013-02-09 08:35:00,
2013-02-09 03:40:00,64.8,58.8,29.94,NNW,338,0.0,0.0,81,0.00,,---,0.00,VWS V13.01,2013-02-09 08:40:00,
2013-02-09 03:45:00,64.8,59.1,29.94,NNW,338,0.0,0.0,82,0.00,,---,0.00,VWS V13.01,2013-02-09 08:45:00,
2013-02-09 03:50:00,64.8,59.1,29.94,NNW,338,0.0,0.0,82,0.00,,---,0.00,VWS V13.01,2013-02-09 08:50:00,
2013-02-09 03:55:00,64.9,59.3,29.94,NNW,338,0.0,0.0,82,0.00,,---,0.00,VWS V13.01,2013-02-09 08:55:00,
2013-02-09 04:00:00,64.9,59.7,29.94,NNW,338,0.0,0.0,83,0.00,,---,0.00,VWS V13.01,2013-02-09 09:00:00,
2013-02-09 04:05:00,64.9,59.7,29.94,NNW,338,0.0,0.0,83,0.00,,---,0.00,VWS V13.01,2013-02-09 09:05:00,
2013-02-09 04:10:00,64.9,60.0,29.94,NNW,338,0.0,0.0,84,0.00,,---,0.00,VWS V13.01,2013-02-09 09:10:00,
2013-02-09 04:15:00,65.1,60.2,29.94,NNW,338,0.0,0.0,84,0.00,,---,0.00,VWS V13.01,2013-02-09 09:15:00,
2013-02-09 04:20:00,65.1,60.2,29.93,NNW,338,0.0,0.0,84,0.00,,---,0.00,VWS V13.01,2013-02-09 09:20:00,
2013-02-09 04:25:00,65.3,60.3,29.94,NNW,338,0.0,0.0,84,0.00,,---,0.00,VWS V13.01,2013-02-09 09:25:00,
2013-02-09 04:30:00,65.1,60.5,29.94,NNW,338,0.0,0.0,85,0.00,,---,0.00,VWS V13.01,2013-02-09 09:30:00,
2013-02-09 04:35:00,65.3,60.7,29.94,NNW,338,0.0,0.0,85,0.00,,---,0.00,VWS V13.01,2013-02-09 09:35:00,
2013-02-09 04:40:00,65.1,60.5,29.94,NNW,338,0.0,0.0,85,0.00,,---,0.00,VWS V13.01,2013-02-09 09:40:00,
2013-02-09 04:45:00,65.1,60.5,29.94,NNW,338,0.0,0.0,85,0.00,,---,0.00,VWS V13.01,2013-02-09 09:45:00,
2013-02-09 04:50:00,65.1,60.5,29.95,NNW,338,0.0,0.0,85,0.00,,---,0.00,VWS V13.01,2013-02-09 09:50:00,
2013-02-09 04:55:00,65.1,60.5,29.94,NNW,338,0.0,0.0,85,0.00,,---,0.00,VWS V13.01,2013-02-09 09:55:00,
2013-02-09 05:00:00,65.1,60.5,29.94,NNW,338,0.0,0.0,85,0.00,,---,0.00,VWS V13.01,2013-02-09 10:00:00,
2013-02-09 05:05:00,65.3,60.7,29.95,NNW,338,0.0,0.0,85,0.00,,---,0.00,VWS V13.01,2013-02-09 10:05:00,
2013-02-09 05:10:00,65.1,60.8,29.95,NNW,338,0.0,0.0,86,0.00,,---,0.00,VWS V13.01,2013-02-09 10:10:00,
2013-02-09 05:15:00,65.1,60.8,29.95,NNW,338,0.0,0.0,86,0.00,,---,0.00,VWS V13.01,2013-02-09 10:15:00,
2013-02-09 05:20:00,64.9,60.7,29.96,NNW,338,0.0,0.0,86,0.00,,---,0.00,VWS V13.01,2013-02-09 10:20:00,
2013-02-09 05:25:00,64.9,60.7,29.96,NNW,338,0.0,0.0,86,0.00,,---,0.00,VWS V13.01,2013-02-09 10:25:00,
2013-02-09 05:30:00,64.9,60.7,29.96,NNW,338,0.0,0.0,86,0.00,,---,0.00,VWS V13.01,2013-02-09 10:30:00,
2013-02-09 05:35:00,64.9,60.7,29.96,NNW,338,0.0,0.0,86,0.00,,---,0.00,VWS V13.01,2013-02-09 10:35:00,
2013-02-09 05:40:00,64.8,60.5,29.96,NNW,338,0.0,0.0,86,0.00,,---,0.00,VWS V13.01,2013-02-09 10:40:00,
2013-02-09 05:45:00,64.8,60.5,29.96,NNW,338,0.0,0.0,86,0.00,,---,0.00,VWS V13.01,2013-02-09 10:45:00,
2013-02-09 05:50:00,64.8,60.5,29.96,NNW,338,0.0,0.0,86,0.00,,---,0.00,VWS V13.01,2013-02-09 10:50:00,
2013-02-09 05:55:00,64.8,60.5,29.96,NNW,338,0.0,0.0,86,0.00,,---,0.00,VWS V13.01,2013-02-09 10:55:00,
2013-02-09 06:00:00,64.6,60.3,29.96,NNW,338,0.0,0.0,86,0.00,,---,0.00,VWS V13.01,2013-02-09 11:00:00,
2013-02-09 06:05:00,64.6,60.3,29.97,NNW,338,0.0,0.0,86,0.00,,---,0.00,VWS V13.01,2013-02-09 11:05:00,
2013-02-09 06:10:00,64.6,60.3,29.97,NNW,338,0.0,0.0,86,0.00,,---,0.00,VWS V13.01,2013-02-09 11:10:00,
2013-02-09 06:15:00,64.6,60.3,29.97,NNW,338,0.0,0.0,86,0.00,,---,0.00,VWS V13.01,2013-02-09 11:15:00,
2013-02-09 06:20:00,64.6,60.3,29.97,NNW,338,0.0,0.0,86,0.00,,---,0.00,VWS V13.01,2013-02-09 11:20:00,
2013-02-09 06:25:00,64.6,60.3,29.97,NNW,338,0.0,0.0,86,0.00,,---,0.00,VWS V13.01,2013-02-09 11:25:00,
2013-02-09 06:30:00,64.4,60.1,29.97,NNW,338,0.0,0.0,86,0.00,,---,0.00,VWS V13.01,2013-02-09 11:30:00,
2013-02-09 06:35:00,64.4,60.1,29.98,NNW,338,0.0,0.0,86,0.00,,---,0.00,VWS V13.01,2013-02-09 11:35:00,
2013-02-09 06:40:00,64.6,60.3,29.98,NNW,338,0.0,0.0,86,0.00,,---,0.00,VWS V13.01,2013-02-09 11:40:00,
2013-02-09 06:45:00,64.6,60.3,29.98,NNW,338,0.0,0.0,86,0.00,,---,0.00,VWS V13.01,2013-02-09 11:45:00,
2013-02-09 06:50:00,64.6,60.3,29.99,NNW,338,0.0,0.0,86,0.00,,---,0.00,VWS V13.01,2013-02-09 11:50:00,
2013-02-09 06:55:00,64.6,60.3,29.99,NNW,338,0.0,0.0,86,0.00,,---,0.00,VWS V13.01,2013-02-09 11:55:00,
2013-02-09 07:00:00,64.6,60.3,29.99,NNW,338,0.0,0.0,86,0.00,,---,0.00,VWS V13.01,2013-02-09 12:00:00,
2013-02-09 07:05:00,64.6,60.3,29.99,NNW,338,0.0,0.0,86,0.00,,---,0.00,VWS V13.01,2013-02-09 12:05:00,
2013-02-09 07:10:00,64.6,60.3,29.99,NNW,338,0.0,0.0,86,0.00,,---,0.00,VWS V13.01,2013-02-09 12:10:00,
2013-02-09 07:15:00,64.6,60.3,29.99,NNW,338,0.0,0.0,86,0.00,,---,0.00,VWS V13.01,2013-02-09 12:15:00,
2013-02-09 07:20:00,64.6,60.3,29.99,NNW,338,0.0,0.0,86,0.00,,---,0.00,VWS V13.01,2013-02-09 12:20:00,
2013-02-09 07:25:00,64.6,60.3,29.99,NNW,338,0.0,0.0,86,0.00,,---,0.00,VWS V13.01,2013-02-09 12:25:00,
2013-02-09 07:30:00,64.6,60.3,30.00,NNW,338,0.0,0.0,86,0.00,,---,0.00,VWS V13.01,2013-02-09 12:30:00,
2013-02-09 07:35:00,64.8,60.5,29.99,NNW,338,0.0,0.0,86,0.00,,---,0.00,VWS V13.01,2013-02-09 12:35:00,
2013-02-09 07:40:00,65.1,60.8,30.00,North,0,0.0,0.0,86,0.00,,---,0.00,VWS V13.01,2013-02-09 12:40:00,
2013-02-09 07:45:00,65.3,61.0,30.00,North,0,0.0,0.0,86,0.00,,---,0.00,VWS V13.01,2013-02-09 12:45:00,
2013-02-09 07:50:00,65.7,61.4,30.00,North,0,0.0,0.0,86,0.00,,---,0.00,VWS V13.01,2013-02-09 12:50:00,
2013-02-09 07:55:00,66.4,62.4,30.01,North,0,0.0,0.0,87,0.00,,---,0.00,VWS V13.01,2013-02-09 12:55:00,
2013-02-09 08:00:00,66.9,62.9,30.01,North,0,0.0,0.0,87,0.00,,---,0.00,VWS V13.01,2013-02-09 13:00:00,
2013-02-09 08:05:00,67.1,63.1,30.01,North,0,0.0,0.0,87,0.00,,---,0.00,VWS V13.01,2013-02-09 13:05:00,
2013-02-09 08:10:00,67.5,63.5,30.01,NNE,22,0.0,0.0,87,0.00,,---,0.00,VWS V13.01,2013-02-09 13:10:00,
2013-02-09 08:15:00,67.5,63.1,30.01,NNE,22,0.0,0.0,86,0.00,,---,0.00,VWS V13.01,2013-02-09 13:15:00,
2013-02-09 08:20:00,67.5,63.1,30.01,NNE,22,0.0,0.0,86,0.00,,---,0.00,VWS V13.01,2013-02-09 13:20:00,
2013-02-09 08:25:00,67.5,63.1,30.01,NNE,22,0.0,0.0,86,0.00,,---,0.00,VWS V13.01,2013-02-09 13:25:00,
2013-02-09 08:30:00,67.5,63.1,30.01,NNE,22,0.0,0.0,86,0.00,,---,0.00,VWS V13.01,2013-02-09 13:30:00,
2013-02-09 08:35:00,67.6,63.3,30.01,NNE,22,0.0,0.0,86,0.00,,---,0.00,VWS V13.01,2013-02-09 13:35:00,
2013-02-09 08:40:00,67.8,63.5,30.02,NNE,22,0.0,0.0,86,0.00,,---,0.00,VWS V13.01,2013-02-09 13:40:00,
2013-02-09 08:45:00,68.4,64.0,30.02,NE,45,0.0,0.0,86,0.00,,---,0.00,VWS V13.01,2013-02-09 13:45:00,
2013-02-09 08:50:00,69.1,64.4,30.02,NE,45,0.0,0.0,85,0.00,,---,0.00,VWS V13.01,2013-02-09 13:50:00,
2013-02-09 08:55:00,69.6,64.9,30.02,NE,45,0.0,0.0,85,0.00,,---,0.00,VWS V13.01,2013-02-09 13:55:00,
2013-02-09 09:00:00,70.3,65.6,30.02,NE,45,0.0,0.0,85,0.00,,---,0.00,VWS V13.01,2013-02-09 14:00:00,
2013-02-09 09:05:00,70.9,65.5,30.03,NE,45,0.0,0.0,83,0.00,,---,0.00,VWS V13.01,2013-02-09 14:05:00,
2013-02-09 09:10:00,71.4,65.6,30.03,NE,45,0.0,0.0,82,0.00,,---,0.00,VWS V13.01,2013-02-09 14:10:00,
2013-02-09 09:15:00,72.0,65.5,30.03,NE,45,0.0,0.0,80,0.00,,---,0.00,VWS V13.01,2013-02-09 14:15:00,
2013-02-09 09:20:00,72.5,64.9,30.03,NE,45,0.0,0.0,77,0.00,,---,0.00,VWS V13.01,2013-02-09 14:20:00,
2013-02-09 09:25:00,72.9,64.5,30.03,NE,45,0.0,0.0,75,0.00,,---,0.00,VWS V13.01,2013-02-09 14:25:00,
2013-02-09 09:30:00,73.0,63.9,30.03,NE,45,0.0,0.0,73,0.00,,---,0.00,VWS V13.01,2013-02-09 14:30:00,
2013-02-09 09:35:00,73.2,64.1,30.03,NE,45,0.0,0.0,73,0.00,,---,0.00,VWS V13.01,2013-02-09 14:35:00,
2013-02-09 09:40:00,73.8,64.2,30.03,NE,45,0.0,0.0,72,0.00,,---,0.00,VWS V13.01,2013-02-09 14:40:00,
2013-02-09 09:45:00,74.3,63.9,30.03,NE,45,0.0,0.0,70,0.00,,---,0.00,VWS V13.01,2013-02-09 14:45:00,
2013-02-09 09:50:00,74.7,63.4,30.03,East,90,0.0,0.0,68,0.00,,---,0.00,VWS V13.01,2013-02-09 14:50:00,
2013-02-09 09:55:00,75.0,63.3,30.03,ENE,68,0.0,1.3,67,0.00,,---,0.00,VWS V13.01,2013-02-09 14:55:00,
2013-02-09 10:00:00,75.6,63.8,30.04,ESE,112,0.0,0.0,67,0.00,,---,0.00,VWS V13.01,2013-02-09 15:00:00,
2013-02-09 10:05:00,76.1,63.9,30.04,ENE,68,0.0,4.3,66,0.00,,---,0.00,VWS V13.01,2013-02-09 15:05:00,
2013-02-09 10:10:00,76.5,62.9,30.04,ENE,68,0.0,4.3,63,0.00,,---,0.00,VWS V13.01,2013-02-09 15:10:00,
2013-02-09 10:15:00,76.5,62.9,30.04,ENE,68,0.0,4.3,63,0.00,,---,0.00,VWS V13.01,2013-02-09 15:15:00,
2013-02-09 10:20:00,77.0,63.0,30.04,NE,45,1.8,7.2,62,0.00,,---,0.00,VWS V13.01,2013-02-09 15:20:00,
2013-02-09 10:25:00,77.4,62.9,30.04,NE,45,0.0,7.2,61,0.00,,---,0.00,VWS V13.01,2013-02-09 15:25:00,
2013-02-09 10:30:00,77.5,62.6,30.04,ENE,68,0.0,7.2,60,0.00,,---,0.00,VWS V13.01,2013-02-09 15:30:00,
2013-02-09 10:35:00,77.9,62.4,30.04,ENE,68,3.6,7.2,59,0.00,,---,0.00,VWS V13.01,2013-02-09 15:35:00,
2013-02-09 10:40:00,78.3,61.8,30.04,ENE,68,0.0,7.4,57,0.00,,---,0.00,VWS V13.01,2013-02-09 15:40:00,
2013-02-09 10:45:00,78.1,61.1,30.04,ENE,68,0.0,7.4,56,0.00,,---,0.00,VWS V13.01,2013-02-09 15:45:00,
2013-02-09 10:50:00,78.3,61.3,30.04,NE,45,3.8,7.4,56,0.00,,---,0.00,VWS V13.01,2013-02-09 15:50:00,
2013-02-09 10:55:00,78.1,60.6,30.04,East,90,2.7,7.6,55,0.00,,---,0.00,VWS V13.01,2013-02-09 15:55:00,
2013-02-09 11:00:00,78.8,61.3,30.04,ESE,112,0.9,7.6,55,0.00,,---,0.00,VWS V13.01,2013-02-09 16:00:00,
2013-02-09 11:05:00,79.0,60.9,30.04,SSE,158,0.0,5.1,54,0.00,,---,0.00,VWS V13.01,2013-02-09 16:05:00,
2013-02-09 11:10:00,79.2,61.1,30.04,SE,135,0.0,5.1,54,0.00,,---,0.00,VWS V13.01,2013-02-09 16:10:00,
2013-02-09 11:15:00,78.3,59.7,30.04,ESE,112,0.0,7.8,53,0.00,,---,0.00,VWS V13.01,2013-02-09 16:15:00,
2013-02-09 11:20:00,78.3,59.7,30.04,East,90,0.0,7.8,53,0.00,,---,0.00,VWS V13.01,2013-02-09 16:20:00,
2013-02-09 11:25:00,79.0,60.9,30.04,SE,135,2.2,7.8,54,0.00,,---,0.00,VWS V13.01,2013-02-09 16:25:00,
2013-02-09 11:30:00,79.5,60.4,30.04,ESE,112,0.0,7.8,52,0.00,,---,0.00,VWS V13.01,2013-02-09 16:30:00,
2013-02-09 11:35:00,80.1,60.3,30.04,ENE,68,2.0,7.8,51,0.00,,---,0.00,VWS V13.01,2013-02-09 16:35:00,
2013-02-09 11:40:00,80.8,61.0,30.04,ENE,68,6.0,8.1,51,0.00,,---,0.00,VWS V13.01,2013-02-09 16:40:00,
2013-02-09 11:45:00,81.0,59.4,30.04,ENE,68,4.9,8.1,48,0.00,,---,0.00,VWS V13.01,2013-02-09 16:45:00,
2013-02-09 11:50:00,80.6,59.1,30.03,ESE,112,0.0,8.1,48,0.00,,---,0.00,VWS V13.01,2013-02-09 16:50:00,
2013-02-09 11:55:00,80.4,59.0,30.03,NE,45,0.0,8.1,48,0.00,,---,0.00,VWS V13.01,2013-02-09 16:55:00,
2013-02-09 12:00:00,80.8,58.7,30.03,ENE,68,1.1,2.9,47,0.00,,---,0.00,VWS V13.01,2013-02-09 17:00:00,
2013-02-09 12:05:00,81.3,59.8,30.03,East,90,0.0,6.0,48,0.00,,---,0.00,VWS V13.01,2013-02-09 17:05:00,
2013-02-09 12:10:00,81.7,60.1,30.03,SE,135,5.1,6.0,48,0.00,,---,0.00,VWS V13.01,2013-02-09 17:10:00,
2013-02-09 12:15:00,82.2,60.0,30.03,East,90,3.4,7.2,47,0.00,,---,0.00,VWS V13.01,2013-02-09 17:15:00,
2013-02-09 12:20:00,82.2,58.8,30.03,East,90,5.6,11.4,45,0.00,,---,0.00,VWS V13.01,2013-02-09 17:20:00,
2013-02-09 12:25:00,82.8,59.3,30.03,ENE,68,3.8,11.4,45,0.00,,---,0.00,VWS V13.01,2013-02-09 17:25:00,
2013-02-09 12:30:00,83.1,59.6,30.02,ESE,112,3.8,11.4,45,0.00,,---,0.00,VWS V13.01,2013-02-09 17:30:00,
2013-02-09 12:35:00,83.7,59.5,30.02,East,90,0.0,11.4,44,0.00,,---,0.00,VWS V13.01,2013-02-09 17:35:00,
2013-02-09 12:40:00,83.1,59.0,30.02,ESE,112,0.0,11.4,44,0.00,,---,0.00,VWS V13.01,2013-02-09 17:40:00,
2013-02-09 12:45:00,81.3,57.3,30.02,ENE,68,6.0,11.4,44,0.00,,---,0.00,VWS V13.01,2013-02-09 17:45:00,
2013-02-09 12:50:00,79.7,56.5,30.02,East,90,7.2,12.1,45,0.00,,---,0.00,VWS V13.01,2013-02-09 17:50:00,
2013-02-09 12:55:00,78.3,56.4,30.03,ENE,68,6.5,12.1,47,0.00,,---,0.00,VWS V13.01,2013-02-09 17:55:00,
2013-02-09 13:00:00,77.5,57.5,30.02,East,90,6.3,12.1,50,0.00,,---,0.00,VWS V13.01,2013-02-09 18:00:00,
2013-02-09 13:05:00,77.2,57.7,30.02,ENE,68,0.0,6.9,51,0.00,,---,0.00,VWS V13.01,2013-02-09 18:05:00,
2013-02-09 13:10:00,77.7,59.8,30.02,ENE,68,3.4,8.1,54,0.00,,---,0.00,VWS V13.01,2013-02-09 18:10:00,
2013-02-09 13:15:00,79.0,60.4,30.02,ESE,112,2.5,9.2,53,0.00,,---,0.00,VWS V13.01,2013-02-09 18:15:00,
2013-02-09 13:20:00,79.9,61.2,30.02,ENE,68,4.5,9.2,53,0.00,,---,0.00,VWS V13.01,2013-02-09 18:20:00,
2013-02-09 13:25:00,80.6,61.4,30.02,East,90,4.3,9.2,52,0.00,,---,0.00,VWS V13.01,2013-02-09 18:25:00,
2013-02-09 13:30:00,80.6,59.7,30.02,SSE,158,0.0,9.2,49,0.00,,---,0.00,VWS V13.01,2013-02-09 18:30:00,
2013-02-09 13:35:00,80.1,59.2,30.02,ENE,68,4.3,9.2,49,0.00,,---,0.00,VWS V13.01,2013-02-09 18:35:00,
2013-02-09 13:40:00,80.6,59.7,30.02,South,180,6.0,10.3,49,0.00,,---,0.00,VWS V13.01,2013-02-09 18:40:00,
2013-02-09 13:45:00,80.2,58.8,30.02,ESE,112,2.0,10.3,48,0.00,,---,0.00,VWS V13.01,2013-02-09 18:45:00,
2013-02-09 13:50:00,79.0,58.2,30.01,SE,135,3.1,10.3,49,0.00,,---,0.00,VWS V13.01,2013-02-09 18:50:00,
2013-02-09 13:55:00,79.0,59.3,30.02,East,90,5.4,10.3,51,0.00,,---,0.00,VWS V13.01,2013-02-09 18:55:00,
2013-02-09 14:00:00,79.5,60.4,30.01,ESE,112,3.1,3.6,52,0.00,,---,0.00,VWS V13.01,2013-02-09 19:00:00,
2013-02-09 14:05:00,79.9,59.6,30.01,ENE,68,4.0,8.3,50,0.00,,---,0.00,VWS V13.01,2013-02-09 19:05:00,
2013-02-09 14:10:00,79.9,59.0,30.01,ENE,68,5.4,8.3,49,0.00,,---,0.00,VWS V13.01,2013-02-09 19:10:00,
2013-02-09 14:15:00,80.1,59.2,30.01,SSE,158,4.3,8.3,49,0.00,,---,0.00,VWS V13.01,2013-02-09 19:15:00,
2013-02-09 14:20:00,80.6,59.7,30.01,East,90,3.6,8.3,49,0.00,,---,0.00,VWS V13.01,2013-02-09 19:20:00,
2013-02-09 14:25:00,81.0,59.4,30.01,NE,45,3.1,8.3,48,0.00,,---,0.00,VWS V13.01,2013-02-09 19:25:00,
2013-02-09 14:30:00,79.9,57.9,30.01,ESE,112,5.8,8.3,47,0.00,,---,0.00,VWS V13.01,2013-02-09 19:30:00,
2013-02-09 14:35:00,79.5,58.7,30.01,ESE,112,2.0,8.3,49,0.00,,---,0.00,VWS V13.01,2013-02-09 19:35:00,
2013-02-09 14:40:00,79.9,59.0,30.01,ENE,68,1.8,11.0,49,0.00,,---,0.00,VWS V13.01,2013-02-09 19:40:00,
2013-02-09 14:45:00,79.7,58.3,30.01,ENE,68,1.6,11.0,48,0.00,,---,0.00,VWS V13.01,2013-02-09 19:45:00,
2013-02-09 14:50:00,79.2,57.8,30.01,East,90,5.6,11.0,48,0.00,,---,0.00,VWS V13.01,2013-02-09 19:50:00,
2013-02-09 14:55:00,78.6,57.9,30.01,ESE,112,0.0,11.0,49,0.00,,---,0.00,VWS V13.01,2013-02-09 19:55:00,
2013-02-09 15:00:00,78.3,58.1,30.01,South,180,1.6,2.0,50,0.00,,---,0.00,VWS V13.01,2013-02-09 20:00:00,
2013-02-09 15:05:00,78.6,59.0,30.01,ENE,68,4.7,5.8,51,0.00,,---,0.00,VWS V13.01,2013-02-09 20:05:00,
2013-02-09 15:10:00,78.3,58.7,30.01,East,90,10.3,10.3,51,0.00,,---,0.00,VWS V13.01,2013-02-09 20:10:00,
2013-02-09 15:15:00,77.7,58.7,30.01,ESE,112,4.5,11.4,52,0.00,,---,0.00,VWS V13.01,2013-02-09 20:15:00,
2013-02-09 15:20:00,77.9,58.9,30.01,ENE,68,10.1,12.1,52,0.00,,---,0.00,VWS V13.01,2013-02-09 20:20:00,
2013-02-09 15:25:00,78.1,59.0,30.01,ESE,112,5.4,13.6,52,0.00,,---,0.00,VWS V13.01,2013-02-09 20:25:00,
2013-02-09 15:30:00,78.4,58.8,30.01,ENE,68,2.5,13.6,51,0.00,,---,0.00,VWS V13.01,2013-02-09 20:30:00,
2013-02-09 15:35:00,78.8,59.2,30.01,East,90,4.0,13.6,51,0.00,,---,0.00,VWS V13.01,2013-02-09 20:35:00,
2013-02-09 15:40:00,78.6,58.4,30.01,ENE,68,5.4,13.6,50,0.00,,---,0.00,VWS V13.01,2013-02-09 20:40:00,
2013-02-09 15:45:00,78.6,58.4,30.01,ESE,112,1.6,13.6,50,0.00,,---,0.00,VWS V13.01,2013-02-09 20:45:00,
2013-02-09 15:50:00,78.6,58.4,30.01,ENE,68,9.4,13.6,50,0.00,,---,0.00,VWS V13.01,2013-02-09 20:50:00,
2013-02-09 15:55:00,78.4,58.3,30.01,NE,45,3.6,13.6,50,0.00,,---,0.00,VWS V13.01,2013-02-09 20:55:00,
2013-02-09 16:00:00,78.4,58.3,30.01,ENE,68,0.4,13.6,50,0.00,,---,0.00,VWS V13.01,2013-02-09 21:00:00,
2013-02-09 16:05:00,77.9,57.8,30.01,ESE,112,3.6,7.2,50,0.00,,---,0.00,VWS V13.01,2013-02-09 21:05:00,
2013-02-09 16:10:00,77.4,58.4,30.02,ENE,68,3.8,9.0,52,0.00,,---,0.00,VWS V13.01,2013-02-09 21:10:00,
2013-02-09 16:15:00,76.8,57.9,30.01,NE,45,11.2,11.2,52,0.00,,---,0.00,VWS V13.01,2013-02-09 21:15:00,
2013-02-09 16:20:00,76.1,57.8,30.02,East,90,0.0,11.2,53,0.00,,---,0.00,VWS V13.01,2013-02-09 21:20:00,
2013-02-09 16:25:00,75.9,57.6,30.02,ESE,112,4.5,11.2,53,0.00,,---,0.00,VWS V13.01,2013-02-09 21:25:00,
2013-02-09 16:30:00,75.6,58.3,30.02,NE,45,0.0,11.2,55,0.00,,---,0.00,VWS V13.01,2013-02-09 21:30:00,
2013-02-09 16:35:00,75.6,58.3,30.02,ENE,68,5.4,11.2,55,0.00,,---,0.00,VWS V13.01,2013-02-09 21:35:00,
2013-02-09 16:40:00,75.4,58.1,30.02,ENE,68,10.7,13.4,55,0.00,,---,0.00,VWS V13.01,2013-02-09 21:40:00,
2013-02-09 16:45:00,75.4,58.1,30.02,ENE,68,0.0,13.4,55,0.00,,---,0.00,VWS V13.01,2013-02-09 21:45:00,
2013-02-09 16:50:00,75.6,58.3,30.02,ENE,68,3.8,13.4,55,0.00,,---,0.00,VWS V13.01,2013-02-09 21:50:00,
2013-02-09 16:55:00,75.6,58.3,30.03,East,90,1.8,13.4,55,0.00,,---,0.00,VWS V13.01,2013-02-09 21:55:00,
2013-02-09 17:00:00,75.4,58.1,30.03,ESE,112,1.3,13.4,55,0.00,,---,0.00,VWS V13.01,2013-02-09 22:00:00,
2013-02-09 17:05:00,75.2,57.9,30.03,East,90,6.7,9.6,55,0.00,,---,0.00,VWS V13.01,2013-02-09 22:05:00,
2013-02-09 17:10:00,75.0,57.8,30.03,SE,135,1.6,9.6,55,0.00,,---,0.00,VWS V13.01,2013-02-09 22:10:00,
2013-02-09 17:15:00,74.8,57.6,30.04,ENE,68,3.8,9.6,55,0.00,,---,0.00,VWS V13.01,2013-02-09 22:15:00,
2013-02-09 17:20:00,74.7,57.4,30.03,SE,135,0.0,9.6,55,0.00,,---,0.00,VWS V13.01,2013-02-09 22:20:00,
2013-02-09 17:25:00,74.5,57.3,30.03,ESE,112,7.4,11.9,55,0.00,,---,0.00,VWS V13.01,2013-02-09 22:25:00,
2013-02-09 17:30:00,74.3,57.6,30.03,ESE,112,5.1,11.9,56,0.00,,---,0.00,VWS V13.01,2013-02-09 22:30:00,
2013-02-09 17:35:00,74.1,57.9,30.03,ESE,112,5.8,13.6,57,0.00,,---,0.00,VWS V13.01,2013-02-09 22:35:00,
2013-02-09 17:40:00,73.9,57.8,30.03,SE,135,1.3,13.6,57,0.00,,---,0.00,VWS V13.01,2013-02-09 22:40:00,
2013-02-09 17:45:00,74.1,57.9,30.03,ENE,68,4.9,13.6,57,0.00,,---,0.00,VWS V13.01,2013-02-09 22:45:00,
2013-02-09 17:50:00,73.8,57.6,30.04,ENE,68,7.8,13.6,57,0.00,,---,0.00,VWS V13.01,2013-02-09 22:50:00,
2013-02-09 17:55:00,73.6,57.9,30.04,East,90,4.3,13.6,58,0.00,,---,0.00,VWS V13.01,2013-02-09 22:55:00,
2013-02-09 18:00:00,73.6,57.9,30.04,ENE,68,0.0,13.6,58,0.00,,---,0.00,VWS V13.01,2013-02-09 23:00:00,
2013-02-09 18:05:00,73.4,57.7,30.04,ESE,112,0.0,7.6,58,0.00,,---,0.00,VWS V13.01,2013-02-09 23:05:00,
2013-02-09 18:10:00,73.0,57.4,30.04,SE,135,2.9,7.6,58,0.00,,---,0.00,VWS V13.01,2013-02-09 23:10:00,
2013-02-09 18:15:00,73.0,57.4,30.04,NE,45,0.9,7.6,58,0.00,,---,0.00,VWS V13.01,2013-02-09 23:15:00,
2013-02-09 18:20:00,72.9,57.2,30.04,ENE,68,2.0,9.0,58,0.00,,---,0.00,VWS V13.01,2013-02-09 23:20:00,
2013-02-09 18:25:00,72.9,57.7,30.04,ESE,112,1.8,9.0,59,0.00,,---,0.00,VWS V13.01,2013-02-09 23:25:00,
2013-02-09 18:30:00,72.5,57.4,30.04,ENE,68,3.8,9.0,59,0.00,,---,0.00,VWS V13.01,2013-02-09 23:30:00,
2013-02-09 18:35:00,72.5,57.4,30.04,NE,45,0.0,9.0,59,0.00,,---,0.00,VWS V13.01,2013-02-09 23:35:00,
2013-02-09 18:40:00,72.5,57.4,30.04,East,90,0.0,11.0,59,0.00,,---,0.00,VWS V13.01,2013-02-09 23:40:00,
2013-02-09 18:45:00,72.3,57.2,30.04,ENE,68,5.1,11.0,59,0.00,,---,0.00,VWS V13.01,2013-02-09 23:45:00,
2013-02-09 18:50:00,72.5,57.4,30.04,East,90,2.7,11.0,59,0.00,,---,0.00,VWS V13.01,2013-02-09 23:50:00,
2013-02-09 18:55:00,72.3,57.7,30.05,ENE,68,0.0,11.0,60,0.00,,---,0.00,VWS V13.01,2013-02-09 23:55:00,
2013-02-09 19:00:00,72.3,57.7,30.04,ESE,112,2.9,11.0,60,0.00,,---,0.00,VWS V13.01,2013-02-10 00:00:00,
2013-02-09 19:05:00,72.3,57.7,30.04,ESE,112,2.5,9.8,60,0.00,,---,0.00,VWS V13.01,2013-02-10 00:05:00,
2013-02-09 19:10:00,72.1,57.5,30.04,ENE,68,7.2,9.8,60,0.00,,---,0.00,VWS V13.01,2013-02-10 00:10:00,
2013-02-09 19:15:00,72.0,57.8,30.04,ESE,112,2.5,9.8,61,0.00,,---,0.00,VWS V13.01,2013-02-10 00:15:00,
2013-02-09 19:20:00,72.0,57.8,30.05,East,90,2.5,12.5,61,0.00,,---,0.00,VWS V13.01,2013-02-10 00:20:00,
2013-02-09 19:25:00,72.0,57.3,30.05,NE,45,0.0,12.5,60,0.00,,---,0.00,VWS V13.01,2013-02-10 00:25:00,
2013-02-09 19:30:00,72.3,57.7,30.05,NE,45,2.2,12.5,60,0.00,,---,0.00,VWS V13.01,2013-02-10 00:30:00,
2013-02-09 19:35:00,72.0,57.3,30.05,ESE,112,5.1,12.5,60,0.00,,---,0.00,VWS V13.01,2013-02-10 00:35:00,
2013-02-09 19:40:00,72.0,57.3,30.05,East,90,1.3,12.5,60,0.00,,---,0.00,VWS V13.01,2013-02-10 00:40:00,
2013-02-09 19:45:00,72.0,57.3,30.05,East,90,3.4,12.5,60,0.00,,---,0.00,VWS V13.01,2013-02-10 00:45:00,
2013-02-09 19:50:00,72.0,57.3,30.05,ENE,68,3.4,12.5,60,0.00,,---,0.00,VWS V13.01,2013-02-10 00:50:00,
2013-02-09 19:55:00,72.0,57.3,30.06,ESE,112,8.5,12.5,60,0.00,,---,0.00,VWS V13.01,2013-02-10 00:55:00,
2013-02-09 20:00:00,72.0,57.3,30.06,ESE,112,4.3,12.5,60,0.00,,---,0.00,VWS V13.01,2013-02-10 01:00:00,
2013-02-09 20:05:00,72.0,56.9,30.06,East,90,4.5,6.0,59,0.00,,---,0.00,VWS V13.01,2013-02-10 01:05:00,
2013-02-09 20:10:00,72.0,56.9,30.06,ESE,112,2.7,7.6,59,0.00,,---,0.00,VWS V13.01,2013-02-10 01:10:00,
2013-02-09 20:15:00,72.0,56.9,30.06,ESE,112,0.0,7.6,59,0.00,,---,0.00,VWS V13.01,2013-02-10 01:15:00,
2013-02-09 20:20:00,72.0,56.9,30.06,East,90,3.4,9.4,59,0.00,,---,0.00,VWS V13.01,2013-02-10 01:20:00,
2013-02-09 20:25:00,72.0,56.9,30.06,ENE,68,8.7,9.4,59,0.00,,---,0.00,VWS V13.01,2013-02-10 01:25:00,
2013-02-09 20:30:00,71.8,56.7,30.06,ENE,68,5.4,9.4,59,0.00,,---,0.00,VWS V13.01,2013-02-10 01:30:00,
2013-02-09 20:35:00,71.8,56.7,30.06,ENE,68,5.4,9.4,59,0.00,,---,0.00,VWS V13.01,2013-02-10 01:35:00,
2013-02-09 20:40:00,71.8,56.7,30.06,ENE,68,0.0,9.4,59,0.00,,---,0.00,VWS V13.01,2013-02-10 01:40:00,
2013-02-09 20:45:00,71.8,56.7,30.06,ENE,68,0.9,9.4,59,0.00,,---,0.00,VWS V13.01,2013-02-10 01:45:00,
2013-02-09 20:50:00,71.6,56.5,30.06,ESE,112,0.4,9.4,59,0.00,,---,0.00,VWS V13.01,2013-02-10 01:50:00,
2013-02-09 20:55:00,71.4,56.4,30.07,ENE,68,0.0,9.4,59,0.00,,---,0.00,VWS V13.01,2013-02-10 01:55:00,
2013-02-09 21:00:00,71.4,56.4,30.07,ENE,68,1.6,9.4,59,0.00,,---,0.00,VWS V13.01,2013-02-10 02:00:00,
2013-02-09 21:05:00,71.4,56.4,30.07,East,90,4.3,4.3,59,0.00,,---,0.00,VWS V13.01,2013-02-10 02:05:00,
2013-02-09 21:10:00,71.4,56.8,30.07,NE,45,3.8,4.9,60,0.00,,---,0.00,VWS V13.01,2013-02-10 02:10:00,
2013-02-09 21:15:00,71.4,56.8,30.07,ENE,68,4.3,6.5,60,0.00,,---,0.00,VWS V13.01,2013-02-10 02:15:00,
2013-02-09 21:20:00,71.4,56.4,30.06,SE,135,4.3,10.3,59,0.00,,---,0.00,VWS V13.01,2013-02-10 02:20:00,
2013-02-09 21:25:00,71.4,56.4,30.07,ENE,68,5.1,10.3,59,0.00,,---,0.00,VWS V13.01,2013-02-10 02:25:00,
2013-02-09 21:30:00,71.2,56.2,30.07,NE,45,0.0,10.3,59,0.00,,---,0.00,VWS V13.01,2013-02-10 02:30:00,
2013-02-09 21:35:00,71.2,56.2,30.07,ENE,68,0.0,10.3,59,0.00,,---,0.00,VWS V13.01,2013-02-10 02:35:00,
2013-02-09 21:40:00,71.1,56.0,30.07,NE,45,1.1,10.3,59,0.00,,---,0.00,VWS V13.01,2013-02-10 02:40:00,
2013-02-09 21:45:00,71.1,56.0,30.07,NE,45,7.4,10.3,59,0.00,,---,0.00,VWS V13.01,2013-02-10 02:45:00,
2013-02-09 21:50:00,71.1,56.0,30.07,ENE,68,0.0,10.3,59,0.00,,---,0.00,VWS V13.01,2013-02-10 02:50:00,
2013-02-09 21:55:00,71.1,56.0,30.07,East,90,4.5,10.3,59,0.00,,---,0.00,VWS V13.01,2013-02-10 02:55:00,
2013-02-09 22:00:00,71.1,56.0,30.08,ENE,68,0.0,10.3,59,0.00,,---,0.00,VWS V13.01,2013-02-10 03:00:00,
2013-02-09 22:05:00,71.1,56.0,30.08,ESE,112,0.0,8.5,59,0.00,,---,0.00,VWS V13.01,2013-02-10 03:05:00,
2013-02-09 22:10:00,70.9,55.8,30.08,ESE,112,3.1,8.5,59,0.00,,---,0.00,VWS V13.01,2013-02-10 03:10:00,
2013-02-09 22:15:00,71.1,56.0,30.08,ENE,68,0.0,8.5,59,0.00,,---,0.00,VWS V13.01,2013-02-10 03:15:00,
2013-02-09 22:20:00,70.9,55.8,30.08,ENE,68,0.0,8.5,59,0.00,,---,0.00,VWS V13.01,2013-02-10 03:20:00,
2013-02-09 22:25:00,70.7,55.7,30.08,NE,45,0.0,8.5,59,0.00,,---,0.00,VWS V13.01,2013-02-10 03:25:00,
2013-02-09 22:30:00,70.9,55.8,30.08,ENE,68,1.3,8.5,59,0.00,,---,0.00,VWS V13.01,2013-02-10 03:30:00,
2013-02-09 22:35:00,70.7,55.7,30.08,NE,45,0.0,8.5,59,0.00,,---,0.00,VWS V13.01,2013-02-10 03:35:00,
2013-02-09 22:40:00,70.7,55.7,30.08,ENE,68,0.0,9.8,59,0.00,,---,0.00,VWS V13.01,2013-02-10 03:40:00,
2013-02-09 22:45:00,70.7,55.2,30.08,NE,45,2.9,9.8,58,0.00,,---,0.00,VWS V13.01,2013-02-10 03:45:00,
2013-02-09 22:50:00,70.7,55.2,30.08,NE,45,1.1,9.8,58,0.00,,---,0.00,VWS V13.01,2013-02-10 03:50:00,
2013-02-09 22:55:00,70.7,55.2,30.08,ENE,68,0.0,9.8,58,0.00,,---,0.00,VWS V13.01,2013-02-10 03:55:00,
2013-02-09 23:00:00,70.7,55.2,30.08,ENE,68,0.0,9.8,58,0.00,,---,0.00,VWS V13.01,2013-02-10 04:00:00,
2013-02-09 23:05:00,70.5,55.5,30.08,East,90,3.4,9.2,59,0.00,,---,0.00,VWS V13.01,2013-02-10 04:05:00,
2013-02-09 23:10:00,70.7,55.2,30.08,ENE,68,0.0,9.2,58,0.00,,---,0.00,VWS V13.01,2013-02-10 04:10:00,
2013-02-09 23:15:00,70.7,55.2,30.08,ENE,68,0.0,9.2,58,0.00,,---,0.00,VWS V13.01,2013-02-10 04:15:00,
2013-02-09 23:20:00,70.5,54.6,30.08,ENE,68,0.0,9.2,57,0.00,,---,0.00,VWS V13.01,2013-02-10 04:20:00,
2013-02-09 23:25:00,70.7,54.7,30.08,ENE,68,0.0,9.2,57,0.00,,---,0.00,VWS V13.01,2013-02-10 04:25:00,
2013-02-09 23:30:00,70.5,55.0,30.08,ENE,68,0.0,9.2,58,0.00,,---,0.00,VWS V13.01,2013-02-10 04:30:00,
2013-02-09 23:35:00,70.5,55.0,30.08,ESE,112,0.0,9.2,58,0.00,,---,0.00,VWS V13.01,2013-02-10 04:35:00,
2013-02-09 23:40:00,70.5,55.0,30.09,ENE,68,0.0,114.1,58,0.00,,---,0.00,VWS V13.01,2013-02-10 04:40:00,
2013-02-09 23:45:00,70.5,55.0,30.08,ENE,68,8.7,114.1,58,0.00,,---,0.00,VWS V13.01,2013-02-10 04:45:00,
2013-02-09 23:50:00,70.3,54.9,30.08,NNE,22,0.0,114.1,58,0.00,,---,0.00,VWS V13.01,2013-02-10 04:50:00,
2013-02-09 23:55:00,70.3,54.9,30.08,ESE,112,0.0,114.1,58,0.00,,---,0.00,VWS V13.01,2013-02-10 04:55:00,